AEE2KL LGAV-LGKL

Flight info

Callsign AEE2KL
Flight time 0h 26m
Altitude 15000
Route DDM Y115 IPTAG
Aircraft A320/M-SDE3FGHIRWY/LB1

Departure

Time 2026-04-25 15:38
Airport Athens Eleftherios Venizelos International Airport (LGAV)

Arrival

Time 2026-04-25 16:04
Airport Kalamata Airport (LGKL)
Time Latitude Longitude Altitude Speed Heading
2026-04-25 14:50 37.94090 23.95416 301 ft 0 kts 217°
2026-04-25 15:28 37.94103 23.95429 304 ft 4 kts 217°
2026-04-25 15:28 37.94124 23.95450 301 ft 3 kts 217°
2026-04-25 15:29 37.94142 23.95465 300 ft 4 kts 209°
2026-04-25 15:29 37.94157 23.95475 301 ft 4 kts 192°
2026-04-25 15:29 37.94181 23.95473 302 ft 4 kts 137°
2026-04-25 15:29 37.94185 23.95468 301 ft 0 kts 127°
2026-04-25 15:31 37.94175 23.95484 300 ft 8 kts 127°
2026-04-25 15:32 37.94131 23.95558 299 ft 13 kts 127°
2026-04-25 15:32 37.94069 23.95644 298 ft 10 kts 154°
2026-04-25 15:32 37.94034 23.95642 297 ft 8 kts 204°
2026-04-25 15:33 37.93913 23.95531 300 ft 13 kts 217°
2026-04-25 15:33 37.93834 23.95456 297 ft 16 kts 217°
2026-04-25 15:33 37.93733 23.95360 298 ft 19 kts 217°
2026-04-25 15:33 37.93627 23.95260 298 ft 19 kts 217°
2026-04-25 15:34 37.93508 23.95147 299 ft 23 kts 217°
2026-04-25 15:34 37.93376 23.95022 301 ft 22 kts 217°
2026-04-25 15:34 37.93247 23.94899 299 ft 25 kts 217°
2026-04-25 15:34 37.93151 23.94809 302 ft 27 kts 217°
2026-04-25 15:35 37.92873 23.94545 302 ft 21 kts 217°
2026-04-25 15:35 37.92745 23.94423 304 ft 25 kts 217°
2026-04-25 15:35 37.92643 23.94327 305 ft 17 kts 217°
2026-04-25 15:36 37.92519 23.94355 306 ft 11 kts 127°
2026-04-25 15:36 37.92482 23.94439 308 ft 10 kts 85°
2026-04-25 15:36 37.92529 23.94494 309 ft 9 kts 36°
2026-04-25 15:37 37.92578 23.94541 306 ft 13 kts 36°
2026-04-25 15:37 37.92834 23.94783 301 ft 80 kts 37°
2026-04-25 15:37 37.93428 23.95348 290 ft 133 kts 37°
2026-04-25 15:37 37.94268 23.96144 473 ft 159 kts 38°
2026-04-25 15:38 37.95163 23.96981 1118 ft 161 kts 38°
2026-04-25 15:38 37.96048 23.97839 1827 ft 159 kts 37°
2026-04-25 15:38 37.96958 23.98723 2341 ft 173 kts 37°
2026-04-25 15:38 37.97985 23.99712 2631 ft 197 kts 37°
2026-04-25 15:39 37.99151 24.00829 3030 ft 221 kts 36°
2026-04-25 15:39 38.00394 24.02024 3724 ft 231 kts 36°
2026-04-25 15:39 38.01698 24.03277 4573 ft 238 kts 37°
2026-04-25 15:39 38.03229 24.04254 5190 ft 257 kts 13°
2026-04-25 15:40 38.05039 24.04164 5996 ft 270 kts 343°
2026-04-25 15:40 38.05988 24.03571 6468 ft 277 kts 326°
2026-04-25 15:40 38.07392 24.00866 7473 ft 293 kts 282°
2026-04-25 15:40 38.07266 23.98286 8295 ft 297 kts 250°
2026-04-25 15:41 38.06419 23.95892 9198 ft 299 kts 241°
2026-04-25 15:41 38.05391 23.93587 10064 ft 302 kts 238°
2026-04-25 15:41 38.04270 23.91253 10486 ft 321 kts 237°
2026-04-25 15:41 38.03062 23.88751 10689 ft 344 kts 238°
2026-04-25 15:42 38.01791 23.86053 10845 ft 368 kts 238°
2026-04-25 15:42 38.00466 23.83165 10958 ft 390 kts 239°
2026-04-25 15:42 37.99098 23.80112 11249 ft 404 kts 240°
2026-04-25 15:42 37.97716 23.76984 11770 ft 410 kts 240°
2026-04-25 15:43 37.96322 23.73803 12330 ft 415 kts 240°
2026-04-25 15:43 37.94915 23.70595 13012 ft 417 kts 240°
2026-04-25 15:43 37.93499 23.67373 13623 ft 420 kts 240°
2026-04-25 15:43 37.92067 23.64126 14184 ft 424 kts 240°
2026-04-25 15:44 37.90616 23.60850 14710 ft 427 kts 240°
2026-04-25 15:44 37.89155 23.57563 14957 ft 429 kts 240°
2026-04-25 15:44 37.87684 23.54259 15023 ft 433 kts 240°
2026-04-25 15:44 37.86191 23.50914 15019 ft 435 kts 240°
2026-04-25 15:45 37.84720 23.47621 15025 ft 435 kts 240°
2026-04-25 15:45 37.83229 23.44283 15028 ft 436 kts 240°
2026-04-25 15:45 37.81733 23.40935 15018 ft 437 kts 240°
2026-04-25 15:45 37.80724 23.38679 15022 ft 437 kts 240°
2026-04-25 15:46 37.78743 23.34250 15020 ft 437 kts 240°
2026-04-25 15:46 37.77245 23.30910 15021 ft 437 kts 240°
2026-04-25 15:46 37.75746 23.27569 15016 ft 437 kts 240°
2026-04-25 15:46 37.74250 23.24239 15018 ft 437 kts 240°
2026-04-25 15:47 37.72750 23.20903 15013 ft 436 kts 240°
2026-04-25 15:47 37.71248 23.17567 15011 ft 436 kts 240°
2026-04-25 15:47 37.69748 23.14241 15013 ft 436 kts 240°
2026-04-25 15:47 37.68246 23.10916 15011 ft 436 kts 240°
2026-04-25 15:48 37.66738 23.07581 14999 ft 437 kts 240°
2026-04-25 15:48 37.65235 23.04257 14996 ft 437 kts 240°
2026-04-25 15:48 37.63732 23.00935 14996 ft 437 kts 240°
2026-04-25 15:48 37.62224 22.97604 14994 ft 437 kts 240°
2026-04-25 15:49 37.60714 22.94271 14991 ft 438 kts 240°
2026-04-25 15:49 37.59201 22.90936 14992 ft 438 kts 240°
2026-04-25 15:49 37.57687 22.87604 14994 ft 438 kts 240°
2026-04-25 15:49 37.56189 22.84310 14996 ft 438 kts 240°
2026-04-25 15:50 37.54674 22.80981 14996 ft 438 kts 240°
2026-04-25 15:50 37.53160 22.77656 15001 ft 438 kts 240°
2026-04-25 15:50 37.52678 22.76599 14999 ft 439 kts 240°
2026-04-25 15:51 37.51818 22.74713 14999 ft 439 kts 240°
2026-04-25 15:51 37.51552 22.74129 14999 ft 439 kts 240°
2026-04-25 15:51 37.49533 22.69706 14802 ft 439 kts 240°
2026-04-25 15:51 37.48930 22.68386 14710 ft 438 kts 240°
2026-04-25 15:52 37.47718 22.65737 14514 ft 437 kts 240°
2026-04-25 15:52 37.46659 22.63426 14350 ft 436 kts 240°
2026-04-25 15:52 37.45538 22.60983 14116 ft 434 kts 240°
2026-04-25 15:52 37.44035 22.57708 13319 ft 431 kts 240°
2026-04-25 15:53 37.42732 22.54311 12595 ft 425 kts 249°
2026-04-25 15:53 37.41918 22.50765 11893 ft 419 kts 259°
2026-04-25 15:53 37.41540 22.47162 11310 ft 410 kts 265°
2026-04-25 15:53 37.41240 22.43670 11173 ft 391 kts 265°
2026-04-25 15:54 37.40945 22.40358 11050 ft 372 kts 265°
2026-04-25 15:54 37.40659 22.37197 10926 ft 356 kts 265°
2026-04-25 15:54 37.40408 22.34153 10804 ft 342 kts 269°
2026-04-25 15:54 37.40426 22.31263 10683 ft 329 kts 274°
2026-04-25 15:55 37.40466 22.29346 10604 ft 321 kts 274°
2026-04-25 15:55 37.40534 22.25696 10378 ft 311 kts 273°
2026-04-25 15:55 37.40580 22.23001 10244 ft 305 kts 274°
2026-04-25 15:55 37.40626 22.20331 10129 ft 305 kts 274°
2026-04-25 15:56 37.40669 22.17671 9988 ft 304 kts 273°
2026-04-25 15:56 37.40696 22.14995 9553 ft 308 kts 273°
2026-04-25 15:56 37.40714 22.12317 9257 ft 303 kts 272°
2026-04-25 15:56 37.40729 22.09683 8967 ft 299 kts 272°
2026-04-25 15:57 37.40742 22.07056 8469 ft 303 kts 272°
2026-04-25 15:57 37.40757 22.04374 7942 ft 308 kts 271°
2026-04-25 15:57 37.40496 22.01690 7200 ft 320 kts 254°
2026-04-25 15:57 37.39562 21.99216 6820 ft 307 kts 235°
2026-04-25 15:58 37.38160 21.97293 6490 ft 292 kts 218°
2026-04-25 15:58 37.36377 21.96184 6125 ft 278 kts 190°
2026-04-25 15:58 37.34496 21.96145 5734 ft 267 kts 168°
2026-04-25 15:58 37.32730 21.96581 5364 ft 257 kts 168°
2026-04-25 15:59 37.30999 21.96991 5001 ft 251 kts 168°
2026-04-25 15:59 37.29277 21.97386 4626 ft 252 kts 169°
2026-04-25 15:59 37.27546 21.97777 4266 ft 254 kts 169°
2026-04-25 15:59 37.25837 21.98157 3958 ft 247 kts 169°
2026-04-25 16:00 37.24141 21.98531 3617 ft 245 kts 169°
2026-04-25 16:00 37.23578 21.98655 3478 ft 243 kts 169°
2026-04-25 16:00 37.20898 21.99244 2876 ft 227 kts 169°
2026-04-25 16:00 37.19383 21.99577 2577 ft 212 kts 169°
2026-04-25 16:01 37.17992 21.99882 2273 ft 196 kts 169°
2026-04-25 16:01 37.16709 22.00164 1994 ft 176 kts 169°
2026-04-25 16:01 37.15577 22.00412 1727 ft 156 kts 169°
2026-04-25 16:01 37.14552 22.00641 1452 ft 145 kts 167°
2026-04-25 16:02 37.13604 22.00924 1206 ft 137 kts 163°
2026-04-25 16:02 37.12688 22.01203 939 ft 135 kts 167°
2026-04-25 16:02 37.11753 22.01400 718 ft 137 kts 168°
2026-04-25 16:02 37.10819 22.01610 596 ft 136 kts 167°
2026-04-25 16:03 37.09906 22.01831 427 ft 132 kts 168°
2026-04-25 16:03 37.09002 22.02029 273 ft 133 kts 168°
2026-04-25 16:03 37.08093 22.02245 86 ft 133 kts 168°
2026-04-25 16:03 37.07252 22.02444 32 ft 105 kts 169°
2026-04-25 16:04 37.06725 22.02567 33 ft 48 kts 169°
2026-04-25 16:04 37.06490 22.02626 30 ft 14 kts 155°
2026-04-25 16:04 37.06462 22.02736 32 ft 13 kts 118°
2026-04-25 16:04 37.06368 22.02776 34 ft 16 kts 168°
2026-04-25 16:05 37.06254 22.02803 34 ft 18 kts 169°
2026-04-25 16:05 37.06137 22.02830 34 ft 14 kts 169°
2026-04-25 16:05 37.05913 22.02882 34 ft 18 kts 169°
2026-04-25 16:06 37.05814 22.02906 34 ft 12 kts 169°
2026-04-25 16:06 37.05724 22.02926 32 ft 14 kts 169°
2026-04-25 16:06 37.05633 22.02948 33 ft 14 kts 169°
2026-04-25 16:06 37.05554 22.02986 34 ft 13 kts 124°
2026-04-25 16:07 37.05527 22.03100 35 ft 14 kts 105°
2026-04-25 16:07 37.05519 22.03138 35 ft 13 kts 105°
2026-04-25 16:07 37.05495 22.03214 33 ft 7 kts 125°
2026-04-25 16:07 37.05488 22.03282 35 ft 4 kts 86°
2026-04-25 16:08 37.05484 22.03302 35 ft 2 kts 105°
2026-04-25 16:08 37.05473 22.03336 35 ft 4 kts 120°
2026-04-25 16:08 37.05464 22.03353 35 ft 1 kts 123°
2026-04-25 16:08 37.05463 22.03356 35 ft 0 kts 123°